Location: North Evanston
(42.0634°N, 87.6976°W)
Time: 14:57:04
(UTC+00:00)

Vanguard 2 - Pass Details

Date: 10 May 2026
Orbit: 553 x 2894 km, 32.9° (Epoch: 8 June)

Event Time Altitude Azimuth Distance (km) Brightness Sun altitude
Rises 09:24:12 0° 237° (WSW) 6,721 - -12.1°
Reaches altitude 10° 09:28:56 10° 233° (SW) 5,690 - -11.4°
Exits shadow 09:30:04 13° 232° (SW) 5,447 11.1 -11.3°
Maximum altitude 09:44:59 50° 166° (SSE) 2,963 10.3 -9.0°
Drops below altitude 10° 09:56:36 10° 96° (E) 4,225 12.2 -7.2°
Sets 09:59:33 0° 91° (E) 4,935 12.8 -6.7°
